Tracking 29892 objects as of 21-Nov-2024
HD Live streaming from Space Station
objects crossing your sky now

NAXING 1

Track NAXING 1 now!
10-day predictions
NAXING 1 is classified as:


NORAD ID: 28221
Int'l Code: 2004-012B
Perigee: 562.6 km
Apogee: 575.7 km
Inclination: 98.0 °
Period: 95.9 minutes
Semi major axis: 6940 km
RCS: 0.3151 m2 (medium)
Launch date: April 18, 2004
Source: People's Republic of China (PRC)
Launch site: Xichang Space Center, China (XSC)

China's first nano-satellite; high-tech demonstration experiments
Your satellite tracking list
Your tracking list is empty




NASA's NSSDC Master Catalog

Two Line Element Set (TLE):
1 28221U 04012B   24325.89823003  .00004097  00000-0  32089-3 0  9996
2 28221  98.0196 321.4621 0009450 207.2341 152.8387 15.01573226121073
Source of the keplerian elements: AFSPC